Regional Weather Roundup
Issued by NWS

Home | Current Version | Previous Version | Graphics & Text | Print | Product List | Glossary On
Versions: 1 2 3 4 5 6 7 8 9 10 11 12 13 14 15 16 17 18 19 20 21 22 23 24 25 26 27 28 29 30 31 32 33 34 35 36 37 38 39 40 41 42 43 44 45 46 47 48 49
000
ASUS45 KBOI 040210
RWRID

IDAHO REGIONAL WEATHER ROUNDUP
NATIONAL WEATHER SERVICE BOISE ID
800 PM MDT MON AUG 03 2015

NOTE: "FAIR" INDICATES FEW OR NO CLOUDS BELOW 12000 FEET
WITH NO SIGNIFICANT WEATHER AND/OR OBSTRUCTIONS TO VISIBILITY

IDZ012-014-040300-
SOUTHWEST IDAHO


CITY           SKY/WX    TMP DP  RH WIND       PRES   REMARKS
BOISE          PTSUNNY   91  48  22 N6        29.84F
CALDWELL       PTSUNNY   91  48  22 NW5       29.83S
MOUNTAIN HOME  MOCLDY    91  45  20 N8        29.84F
$$

IDZ016-017-040300-
SOUTHCENTRAL IDAHO


CITY           SKY/WX    TMP DP  RH WIND       PRES   REMARKS
BURLEY         CLOUDY    74  55  51 SE5       29.97S
JEROME         MOCLDY    81  46  29 E8        29.95F
TWIN FALLS     MOCLDY    83  51  33 E7        29.94S
$$

IDZ019>023-040300-
SOUTHEAST IDAHO


CITY           SKY/WX    TMP DP  RH WIND       PRES   REMARKS
IDAHO FALLS    CLOUDY    69  54  58 S9        30.05F
POCATELLO      LGT RAIN  66  60  81 S7        30.05R
REXBURG        CLOUDY    68  48  48 SW8       30.01F
$$

IDZ006-010-011-018-031-032-040300-
CENTRAL IDAHO MOUNTAINS


CITY           SKY/WX    TMP DP  RH WIND       PRES   REMARKS
MCCALL         CLOUDY    72  44  36 S3        30.02S
HAILEY         CLOUDY    70  52  52 W7        30.06F
STANLEY          N/A     70  41  34 CALM      30.13S
SALMON         CLOUDY    81  45  28 SE3       29.90R
CHALLIS        CLOUDY    77  40  26 SW15G22   30.02R
$$

IDZ002-004-006-007-026-040300-
NORTHERN IDAHO


CITY           SKY/WX    TMP DP  RH WIND       PRES   REMARKS
LEWISTON       CLOUDY    87  42  20 W14       29.80S
LOWELL           N/A     79  57  46 N3        29.81R
COEUR D`ALENE  CLOUDY    84  39  20 SW13      29.82R
MULLAN PASS    PTSUNNY   66  36  32 VRB6      30.07R
$$



USA.gov is the U.S. government's official web portal to all federal, state and local government web resources and services.